Location: Dittelbrunn
(50.0738°N, 10.2196°E)
Time: 11:24:01
(UTC+00:00)

Cosmos 2142 Rocket - Pass Details

Date: 18 September 2020
Orbit: 952 x 1005 km, 82.9° (Epoch: 21 October)

Event Time Altitude Azimuth Distance (km) Brightness Sun altitude
Exits shadow 20:21:19 62° 170° (S) 1,098 4.5 -26.8°
Maximum altitude 20:22:25 82° 97° (E) 999 4.4 -26.9°
Drops below altitude 10° 20:28:41 10° 11° (N) 2,729 7.2 -27.7°
Sets 20:31:11 0° 11° (N) 3,673 7.9 -28.0°
